Temp
-7 -7 -6 -8 -7 -7 -7 -7 -6 -7 -5 -6 -6 -5 -5 -4 -3 -3 -3 -4 -4 -4 -4 -4 -4 -4 -4 -4 -4 -4 -5 -5 -5 -5 -6 -6 -6 -6 -6 -6 -6 -6 -6 -7
-7 -6 -6 -8 -7 -7 -7 -7 -6 -7 -5 -6 -6 -5 -5 -4 -3 -4 -4 -3 -4 -4 -4 -4 -5 -4 -4 -4 -4 -4 -4 -4 -4 -5 -5 -6 -6 -6 -6 -6 -6 -6 -6 -7
-6 -5 -7 -8 -7 -6 -7 -6 -6 -6 -5 -6 -7 -7 -4 -5 -4 -4 -4 -4 -4 -4 -4 -4 -4 -4 -4 -4 -4 -4 -4 -4 -4 -4 -5 -5 -5 -5 -5 -5 -6 -6 -6 -6
-7 -7 -8 -7 -7 -7 -6 -6 -6 -6 -6 -6 -6 -6 -6 -4 -5 -4 -4 -4 -3 -3 -4 -4 -5 -4 -4 -4 -4 -4 -4 -5 -5 -5 -5 -5 -5 -5 -6 -6 -6 -6 -6 -6
-5 -8 -7 -7 -7 -6 -7 -6 -6 -6 -6 -6 -6 -6 -6 -5 -4 -4 -3 -3 -3 -3 -3 -3 -4 -4 -4 -4 -4 -4 -4 -4 -4 -5 -5 -5 -6 -6 -6 -6 -6 -6 -6 -7
-6 -8 -7 -7 -7 -7 -7 -7 -6 -6 -6 -5 -5 -5 -6 -6 -5 -4 -3 -3 -3 -3 -3 -4 -4 -4 -4 -4 -4 -4 -4 -4 -5 -5 -5 -5 -6 -6 -6 -6 -6 -7 -7 -6
-6 -8 -8 -7 -7 -6 -7 -6 -6 -6 -6 -5 -4 -5 -6 -6 -6 -4 -3 -3 -3 -3 -4 -4 -4 -4 -4 -4 -4 -4 -4 -5 -5 -5 -5 -5 -5 -6 -6 -7 -7 -7 -7 -7
-5 -7 -7 -7 -7 -7 -7 -6 -6 -6 -5 -4 -4 -4 -5 -6 -6 -5 -4 -4 -4 -4 -4 -4 -4 -4 -4 -4 -4 -4 -5 -5 -5 -5 -5 -6 -6 -7 -7 -7 -7 -7 -7 -7
-5 -6 -7 -7 -7 -7 -7 -7 -6 -5 -4 -4 -5 -4 -5 -5 -6 -5 -6 -4 -4 -4 -4 -5 -5 -5 -5 -5 -5 -5 -5 -5 -6 -6 -6 -6 -7 -7 -7 -7 -7 -7 -7 -7
-7 -7 -7 -7 -7 -7 -7 -7 -6 -6 -5 -4 -5 -4 -5 -5 -5 -5 -6 -6 -4 -5 -5 -5 -5 -5 -5 -5 -5 -5 -5 -6 -6 -7 -7 -7 -7 -7 -7 -7 -7 -7 -7 -7
-6 -7 -7 -7 -6 -6 -6 -7 -6 -6 -6 -5 -5 -4 -4 -4 -4 -4 -5 -5 -5 -5 -5 -5 -5 -5 -5 -5 -5 -5 -6 -6 -7 -7 -7 -7 -7 -7 -7 -7 -8 -8 -7 -7
-6 -7 -7 -6 -7 -7 -7 -6 -7 -6 -6 -5 -4 -5 -4 -5 -4 -5 -6 -5 -5 -5 -6 -6 -6 -5 -6 -5 -6 -6 -6 -6 -7 -7 -7 -7 -7 -7 -8 -8 -8 -8 -7 -7
-6 -7 -7 -6 -7 -7 -6 -7 -7 -6 -6 -5 -5 -5 -5 -5 -5 -5 -5 -4 -5 -5 -6 -6 -6 -6 -6 -6 -6 -6 -6 -6 -7 -7 -7 -7 -7 -7 -8 -8 -8 -8 -8 -8
-6 -7 -7 -6 -6 -6 -6 -7 -7 -6 -6 -5 -5 -5 -5 -5 -6 -5 -5 -4 -5 -5 -6 -6 -6 -6 -6 -6 -6 -6 -6 -7 -7 -7 -7 -8 -8 -8 -8 -8 -9 -9 -9 -8
-7 -6 -7 -6 -6 -6 -7 -6 -6 -6 -6 -5 -5 -5 -4 -6 -6 -6 -5 -4 -5 -5 -5 -5 -6 -6 -6 -6 -7 -7 -7 -7 -7 -7 -8 -8 -8 -8 -8 -8 -9 -9 -9 -9
-8 -7 -7 -7 -6 -6 -6 -7 -6 -6 -6 -6 -5 -5 -5 -6 -5 -6 -6 -5 -5 -5 -5 -5 -6 -6 -6 -6 -7 -7 -7 -7 -7 -8 -8 -8 -8 -8 -8 -9 -9 -8 -8 -9
-9 -8 -8 -7 -6 -7 -6 -6 -6 -6 -6 -6 -6 -5 -5 -6 -6 -6 -6 -6 -6 -5 -6 -5 -6 -6 -6 -7 -7 -7 -7 -7 -8 -8 -8 -8 -8 -9 -9 -9 -9 -10 -9 -9
-8 -9 -8 -6 -6 -7 -6 -6 -6 -6 -6 -6 -6 -6 -5 -6 -6 -6 -6 -6 -7 -4 -5 -5 -5 -6 -6 -6 -7 -7 -7 -8 -8 -8 -8 -8 -8 -9 -9 -9 -9 -9 -10 -9
-9 -8 -8 -7 -7 -5 -6 -6 -6 -6 -6 -6 -6 -6 -6 -6 -6 -6 -7 -6 -6 -5 -4 -5 -5 -6 -6 -6 -7 -7 -7 -8 -8 -8 -8 -8 -8 -9 -9 -9 -10 -10 -9 -9
-10 -9 -8 -7 -7 -6 -5 -6 -7 -7 -6 -6 -7 -6 -6 -6 -7 -7 -7 -5 -6 -6 -5 -5 -6 -6 -6 -7 -7 -8 -8 -8 -8 -8 -8 -8 -9 -8 -9 -10 -10 -10 -9 -10
-10 -10 -8 -7 -7 -6 -6 -7 -7 -7 -6 -6 -7 -7 -7 -5 -5 -7 -7 -6 -5 -5 -5 -6 -6 -6 -7 -7 -8 -8 -8 -8 -8 -8 -8 -8 -8 -8 -9 -10 -10 -10 -9 -9
-10 -10 -8 -7 -8 -7 -7 -8 -8 -8 -7 -7 -7 -6 -6 -5 -6 -6 -7 -6 -5 -6 -6 -6 -7 -7 -8 -8 -8 -8 -8 -8 -8 -8 -8 -8 -9 -9 -10 -10 -10 -10 -10 -9
-10 -9 -8 -7 -6 -7 -7 -8 -8 -8 -8 -7 -6 -6 -5 -5 -6 -6 -6 -5 -5 -6 -6 -7 -7 -7 -8 -8 -8 -8 -8 -8 -8 -8 -8 -8 -9 -9 -9 -10 -10 -10 -10 -10
-10 -9 -9 -9 -8 -8 -8 -8 -8 -8 -8 -7 -6 -6 -6 -6 -6 -6 -5 -5 -6 -6 -6 -7 -7 -8 -8 -8 -8 -8 -8 -8 -8 -8 -8 -8 -9 -9 -10 -10 -10 -10 -10 -10
-11 -9 -8 -8 -8 -8 -9 -8 -8 -8 -9 -8 -6 -6 -6 -6 -6 -5 -5 -5 -6 -6 -6 -7 -8 -8 -8 -8 -8 -8 -8 -8 -7 -8 -8 -9 -9 -9 -10 -10 -10 -10 -10 -11
-12 -11 -9 -8 -9 -8 -8 -8 -8 -8 -8 -8 -8 -7 -6 -7 -7 -6 -5 -6 -6 -7 -7 -7 -8 -8 -8 -9 -8 -8 -8 -8 -8 -8 -9 -9 -9 -10 -10 -10 -10 -11 -10 -11
Height
5912 5914 5917 5922 5921 5926 5926 5925 5921 5935 5938 5935 5935 5937 5937 5934 5934 5933 5934 5934 5935 5936 5936 5936 5936 5937 5937 5937 5938 5938 5940 5940 5939 5937 5937 5939 5939 5938 5938 5937 5934 5931 5924 5922
5908 5910 5916 5922 5927 5924 5924 5929 5938 5940 5940 5939 5939 5936 5938 5938 5936 5936 5936 5935 5936 5937 5937 5938 5938 5939 5938 5939 5940 5940 5941 5942 5942 5941 5940 5941 5941 5940 5939 5937 5936 5932 5928 5926
5904 5911 5915 5922 5927 5929 5932 5940 5940 5941 5940 5941 5945 5942 5938 5939 5939 5938 5938 5937 5937 5937 5938 5939 5938 5939 5940 5941 5942 5943 5944 5945 5945 5944 5943 5943 5942 5941 5940 5938 5936 5934 5932 5930
5903 5909 5914 5920 5925 5930 5936 5934 5939 5940 5940 5944 5944 5946 5941 5940 5940 5939 5939 5938 5938 5939 5940 5940 5939 5941 5942 5944 5945 5946 5946 5946 5946 5946 5945 5945 5944 5943 5941 5939 5938 5936 5934 5929
5898 5903 5913 5918 5925 5928 5933 5938 5937 5939 5941 5943 5944 5943 5944 5940 5940 5941 5940 5941 5941 5942 5942 5943 5944 5944 5945 5946 5947 5948 5948 5948 5948 5948 5947 5947 5945 5943 5942 5940 5938 5935 5932 5926
5895 5902 5910 5916 5921 5925 5930 5932 5935 5937 5940 5943 5945 5946 5943 5941 5941 5941 5941 5942 5943 5944 5946 5947 5948 5948 5948 5949 5950 5950 5951 5950 5949 5948 5948 5947 5945 5944 5942 5940 5938 5936 5933 5927
5889 5896 5904 5912 5919 5922 5926 5931 5934 5937 5939 5942 5947 5945 5942 5944 5942 5943 5943 5943 5944 5945 5947 5948 5949 5950 5950 5951 5951 5951 5951 5951 5950 5950 5949 5947 5945 5943 5942 5940 5937 5935 5932 5926
5883 5888 5897 5905 5911 5917 5921 5929 5933 5935 5939 5942 5945 5947 5945 5945 5944 5943 5944 5945 5946 5947 5948 5948 5949 5950 5951 5952 5952 5952 5951 5950 5950 5949 5948 5946 5945 5943 5940 5938 5936 5934 5931 5925
5879 5885 5895 5901 5906 5911 5918 5921 5929 5933 5938 5943 5943 5946 5943 5945 5944 5944 5945 5944 5946 5947 5948 5948 5949 5950 5951 5952 5952 5951 5950 5950 5949 5948 5947 5945 5944 5941 5939 5937 5934 5931 5928 5924
5878 5884 5890 5897 5902 5904 5909 5921 5922 5924 5930 5936 5941 5943 5943 5944 5943 5944 5946 5946 5946 5947 5948 5948 5948 5949 5950 5951 5951 5951 5950 5949 5948 5947 5945 5944 5942 5939 5937 5935 5933 5930 5926 5922
5872 5881 5887 5892 5888 5896 5904 5908 5916 5923 5927 5932 5937 5938 5939 5939 5942 5942 5944 5946 5946 5947 5946 5946 5947 5948 5948 5950 5950 5949 5949 5948 5946 5945 5944 5943 5940 5938 5936 5934 5932 5927 5923 5917
5865 5874 5880 5882 5890 5893 5897 5904 5911 5915 5920 5926 5933 5935 5938 5936 5938 5940 5942 5943 5945 5945 5945 5944 5945 5945 5947 5946 5947 5946 5946 5945 5944 5943 5942 5940 5939 5937 5936 5933 5929 5925 5920 5915
5859 5863 5875 5882 5888 5887 5889 5897 5905 5913 5919 5922 5930 5934 5929 5933 5935 5935 5938 5940 5942 5944 5944 5943 5942 5942 5945 5944 5943 5943 5943 5942 5941 5940 5939 5938 5937 5935 5932 5929 5925 5921 5916 5910
5851 5858 5862 5872 5879 5885 5885 5891 5899 5907 5912 5918 5925 5929 5933 5932 5931 5931 5934 5934 5938 5940 5942 5942 5942 5942 5942 5942 5940 5939 5939 5938 5938 5938 5937 5935 5934 5932 5929 5925 5921 5916 5910 5905
5838 5845 5856 5865 5878 5882 5883 5887 5895 5899 5908 5913 5922 5926 5926 5926 5927 5927 5928 5929 5933 5937 5938 5939 5940 5939 5938 5939 5938 5936 5936 5935 5935 5934 5933 5932 5930 5928 5924 5920 5916 5911 5904 5899
5829 5836 5849 5857 5866 5877 5880 5881 5887 5895 5901 5909 5916 5923 5923 5919 5920 5923 5923 5923 5927 5930 5931 5933 5934 5935 5934 5934 5934 5933 5933 5933 5932 5931 5929 5927 5926 5923 5919 5915 5910 5905 5899 5894
5821 5829 5837 5844 5857 5865 5871 5876 5880 5888 5895 5902 5907 5915 5923 5922 5920 5918 5917 5917 5920 5924 5925 5926 5928 5929 5929 5930 5929 5929 5930 5929 5928 5926 5925 5923 5920 5917 5912 5908 5903 5897 5893 5886
5809 5820 5828 5837 5848 5847 5860 5873 5878 5882 5887 5894 5902 5908 5914 5916 5915 5914 5915 5912 5913 5915 5918 5919 5921 5922 5923 5924 5924 5925 5925 5925 5923 5922 5920 5917 5915 5911 5906 5900 5895 5890 5884 5877
5800 5810 5817 5824 5833 5848 5853 5862 5870 5876 5881 5886 5891 5899 5904 5908 5910 5909 5907 5909 5911 5906 5911 5915 5916 5916 5917 5918 5919 5919 5919 5919 5918 5916 5914 5911 5908 5904 5899 5894 5888 5885 5878 5870
5794 5800 5809 5819 5825 5829 5846 5855 5863 5870 5871 5880 5885 5890 5895 5900 5900 5904 5902 5901 5906 5900 5905 5909 5910 5910 5911 5912 5913 5913 5913 5913 5911 5909 5907 5905 5902 5898 5893 5888 5882 5875 5870 5862
5783 5790 5796 5808 5817 5827 5840 5849 5858 5856 5864 5869 5874 5877 5881 5888 5893 5897 5895 5892 5894 5898 5900 5902 5902 5903 5905 5905 5906 5907 5906 5905 5903 5902 5900 5897 5894 5891 5887 5881 5876 5869 5862 5854
5775 5783 5790 5803 5811 5819 5833 5845 5846 5852 5857 5862 5865 5870 5875 5880 5884 5884 5884 5882 5889 5891 5892 5894 5895 5896 5898 5898 5898 5898 5897 5897 5896 5894 5892 5889 5886 5883 5878 5874 5868 5862 5855 5848
5770 5779 5790 5797 5806 5816 5826 5834 5840 5845 5847 5853 5857 5861 5865 5870 5872 5876 5871 5878 5883 5884 5885 5886 5888 5890 5891 5891 5890 5890 5890 5889 5888 5885 5882 5880 5878 5874 5869 5865 5861 5854 5847 5841
5762 5775 5780 5788 5796 5807 5815 5825 5829 5832 5836 5843 5849 5855 5858 5861 5863 5864 5865 5873 5875 5876 5877 5878 5881 5882 5882 5882 5882 5882 5881 5880 5878 5874 5872 5871 5869 5865 5861 5857 5852 5846 5840 5833
5757 5766 5772 5780 5789 5795 5802 5812 5820 5824 5829 5830 5839 5846 5850 5853 5854 5855 5859 5864 5865 5866 5868 5870 5872 5873 5873 5873 5873 5873 5873 5871 5868 5865 5863 5862 5859 5857 5854 5850 5845 5839 5833 5825
5754 5758 5763 5772 5783 5788 5796 5804 5810 5815 5822 5827 5831 5837 5840 5842 5841 5846 5851 5854 5857 5858 5860 5862 5864 5865 5866 5864 5865 5865 5863 5861 5859 5857 5856 5854 5852 5850 5845 5841 5836 5830 5823 5817
Wind_Speed
22 19 15 9 17 6 15 10 9 7 6 10 8 3 3 8 9 10 12 13 13 12 11 11 11 12 13 15 15 15 15 13 17 17 8 7 8 9 12 16 17 21 19 14
26 20 16 13 13 12 10 18 9 4 2 11 4 5 8 5 6 8 9 12 13 12 12 12 10 11 12 14 14 16 16 17 17 20 20 14 11 11 14 18 20 23 25 19
26 17 21 15 17 4 3 8 8 12 10 14 5 7 9 8 3 3 6 10 12 12 14 13 10 9 11 12 13 14 13 12 13 16 17 15 13 14 16 18 20 22 24 22
27 20 21 18 18 16 13 13 11 8 8 5 4 10 17 9 7 3 4 6 10 10 10 15 16 15 13 12 12 11 9 10 12 14 14 14 13 14 16 18 19 19 19 18
30 28 25 23 19 15 19 14 12 9 7 2 5 7 8 15 9 2 4 7 8 8 11 12 15 19 14 12 9 9 7 7 9 11 11 12 13 14 16 17 19 20 20 19
30 27 27 25 21 26 16 15 19 14 8 7 6 14 11 12 12 2 5 8 6 6 7 7 9 8 10 9 7 4 5 6 8 11 11 12 12 13 16 19 21 21 21 21
36 34 29 25 26 30 22 17 10 12 11 8 8 11 14 14 17 4 5 7 6 4 1 3 5 4 4 3 3 5 6 7 7 9 11 13 14 16 19 22 24 26 27 28
39 40 36 32 31 29 28 23 18 14 10 8 7 13 16 11 13 7 6 7 7 6 3 3 5 2 2 3 4 6 8 10 11 13 14 14 16 19 23 27 30 32 33 33
41 37 33 33 29 33 28 30 24 17 10 13 14 13 14 11 9 9 12 9 7 7 4 3 3 6 7 6 6 8 10 11 12 14 15 15 18 20 24 29 31 32 30 31
32 34 31 32 38 36 35 25 29 28 24 22 15 18 15 24 23 16 14 16 12 7 5 3 4 5 9 11 10 10 10 12 14 15 17 15 18 21 25 28 31 28 28 29
37 28 31 35 41 37 39 35 29 24 22 17 16 14 16 18 23 20 13 13 14 9 7 8 8 8 10 11 12 11 11 12 13 15 16 16 18 22 26 26 27 29 30 31
43 31 28 35 32 34 31 38 29 33 29 22 22 16 17 20 19 17 22 19 15 13 10 12 12 13 12 15 17 16 14 13 13 16 19 18 18 20 21 24 29 32 34 32
46 41 26 30 32 35 39 35 36 28 26 23 17 11 11 15 19 20 21 17 15 13 12 14 16 18 15 19 20 18 15 15 13 17 21 22 20 20 24 26 28 33 36 35
47 49 37 35 36 35 36 35 32 32 34 26 23 19 19 19 22 24 22 28 20 18 17 18 20 20 18 18 20 19 17 16 17 18 19 21 23 22 25 29 32 34 38 41
52 55 45 36 29 32 34 37 35 36 36 31 23 25 19 22 19 16 25 30 27 25 27 27 22 21 21 19 20 18 19 20 20 22 23 24 23 24 28 33 38 44 42 41
48 54 51 44 39 31 32 33 38 37 37 32 29 25 19 25 26 28 31 38 29 28 30 28 24 22 23 21 20 20 20 23 24 23 26 28 28 30 32 38 44 46 49 53
48 53 53 54 47 37 37 35 36 39 35 35 37 33 25 28 28 27 28 31 32 28 30 27 26 24 24 22 24 23 23 25 25 27 29 31 33 37 39 43 48 54 52 40
54 52 54 57 53 48 42 29 33 35 41 39 35 33 33 30 23 25 29 35 31 23 22 23 24 24 22 22 24 24 25 26 28 31 33 34 37 39 44 46 50 54 46 49
47 55 59 59 61 55 47 37 37 33 35 34 40 38 43 34 34 34 33 37 31 33 25 20 22 24 22 22 22 21 24 28 32 35 36 38 40 43 46 49 53 45 50 50
38 48 60 58 54 62 58 45 26 30 34 35 31 37 39 39 43 36 37 36 25 34 29 20 22 23 24 25 23 22 27 31 35 34 38 41 43 46 48 48 52 48 53 52
47 41 51 57 58 53 49 35 34 43 44 42 43 47 51 44 43 34 36 39 35 30 29 26 24 24 25 26 27 29 31 32 32 33 35 39 43 45 45 45 47 47 51 50
53 52 54 53 52 55 39 24 39 39 36 36 35 40 37 35 37 40 41 41 33 30 28 27 27 29 31 32 32 33 34 36 36 39 41 44 44 44 44 40 42 45 48 49
59 53 48 52 59 48 47 39 27 35 35 31 35 34 32 30 34 35 44 39 33 33 30 29 29 30 32 35 38 38 39 41 41 42 43 45 44 43 41 38 43 50 48 50
52 54 54 48 48 49 37 45 41 40 36 41 37 30 28 29 32 38 41 32 33 33 33 34 32 34 36 37 40 40 41 39 39 42 43 41 40 38 40 43 48 48 48 48
31 50 59 56 50 48 49 49 49 44 33 37 43 37 32 34 35 37 37 33 34 34 35 36 35 37 38 38 39 41 40 40 41 42 39 37 37 38 40 41 47 47 50 52
28 20 40 55 52 49 48 50 51 51 48 43 38 37 36 32 38 39 29 33 34 33 32 34 38 39 38 41 43 42 42 39 38 37 33 36 36 37 43 47 50 51 51 54
Wind_Direction
201 203 179 163 236 197 124 171 99 31 320 188 187 169 18 98 102 108 111 106 105 108 106 106 105 100 92 83 76 77 78 61 49 44 65 67 45 25 11 5 9 2 350 311
200 199 170 197 218 235 129 99 162 169 332 144 336 308 46 36 86 102 110 111 106 100 89 80 85 87 88 85 82 76 64 62 60 62 73 73 55 32 20 10 14 20 28 29
210 177 165 205 210 202 207 158 176 232 114 120 211 261 8 19 38 85 113 114 105 92 72 58 53 89 91 94 90 86 77 69 60 59 58 55 43 27 15 9 9 11 13 16
207 189 197 198 214 207 173 211 169 228 143 245 231 219 284 6 358 11 89 101 101 96 67 47 79 94 99 93 90 82 74 58 48 43 37 32 25 18 10 8 10 10 8 360
203 184 208 201 209 208 183 222 244 234 209 191 244 213 243 299 348 250 108 101 100 98 79 65 99 100 91 94 83 76 53 31 30 29 21 19 14 11 12 10 6 10 11 355
203 201 202 207 210 196 211 186 198 213 204 228 213 242 209 265 326 276 129 118 114 103 99 103 122 107 93 86 81 70 27 15 15 13 9 9 10 10 6 4 2 2 357 348
201 203 210 198 212 202 201 210 232 231 218 210 216 251 273 205 277 280 188 157 145 136 148 148 139 118 104 87 59 22 10 10 10 6 5 1 5 6 5 6 2 0 354 344
204 206 202 202 212 209 204 208 219 220 202 201 231 213 250 204 252 251 202 190 174 156 145 193 182 196 27 3 11 8 8 4 359 353 353 359 3 6 6 359 353 348 344 340
213 211 204 211 220 201 212 212 206 199 210 221 227 203 262 206 241 192 222 223 212 203 176 106 263 293 301 291 307 332 339 336 337 344 349 350 3 10 7 1 353 346 342 337
209 217 209 206 219 213 202 221 205 201 215 218 229 236 215 218 238 234 203 221 219 235 235 206 249 286 304 304 305 310 315 318 323 333 339 345 351 355 351 349 348 343 338 333
204 214 215 208 223 212 204 195 218 212 214 218 239 224 238 256 250 234 224 215 233 226 262 265 275 286 289 296 302 302 299 301 311 322 323 329 340 341 337 338 346 344 342 333
202 194 213 225 222 224 219 206 206 205 192 210 221 250 230 240 263 221 210 225 224 242 253 275 279 289 301 301 306 304 298 296 302 309 315 317 324 329 331 333 337 341 340 333
201 194 208 207 217 230 220 214 213 213 195 206 209 214 290 199 203 238 241 236 238 238 251 267 277 285 294 297 302 300 295 297 303 304 308 311 314 321 333 331 340 339 337 333
207 201 194 210 212 218 220 208 210 207 204 190 210 224 179 202 209 244 262 265 252 245 237 244 260 272 288 297 301 297 295 294 296 301 308 311 316 322 324 330 326 330 337 342
208 211 205 191 203 221 230 211 206 207 206 200 200 224 212 217 236 238 268 255 245 246 249 254 258 270 288 298 296 287 287 290 294 295 304 307 312 327 326 327 325 321 326 327
210 212 206 203 186 207 225 225 210 214 204 208 196 198 254 281 281 273 274 271 251 251 253 258 263 268 281 286 286 280 282 286 293 300 300 304 312 317 319 318 314 320 324 322
213 208 209 212 188 199 210 225 227 208 218 210 210 196 198 237 241 257 258 263 259 253 259 265 265 265 269 274 277 278 285 288 296 294 296 300 304 305 304 311 313 315 320 324
218 207 213 215 206 205 199 206 223 226 219 212 218 215 213 224 238 259 260 266 260 266 262 269 265 258 260 266 271 274 281 284 293 296 296 297 299 303 308 309 311 326 328 325
220 211 208 214 214 214 206 196 211 210 234 234 208 217 219 222 234 246 255 260 251 274 268 263 266 259 259 265 266 270 277 282 292 292 289 292 297 306 307 308 322 325 326 325
205 212 212 213 216 218 216 210 215 204 218 222 222 220 228 226 232 224 247 258 263 260 273 273 261 255 254 261 274 277 280 285 291 290 287 291 297 301 306 313 319 326 326 316
200 213 214 212 218 222 222 212 215 219 215 215 213 214 221 231 238 232 243 253 254 260 270 262 259 258 259 266 276 274 278 284 286 291 291 292 294 299 308 309 320 320 320 319
196 205 215 211 215 219 212 211 223 231 234 228 232 234 237 234 232 234 233 253 260 264 262 258 252 255 259 260 261 266 273 278 283 288 285 287 292 298 300 310 318 315 317 317
210 214 216 221 221 218 215 199 203 226 227 231 230 236 234 229 230 233 244 250 253 255 257 255 252 252 258 263 266 271 277 281 288 286 284 284 288 293 298 307 311 309 312 315
222 216 220 219 218 213 218 204 203 210 227 224 228 233 237 233 235 236 245 249 251 251 246 248 249 252 255 262 268 272 277 285 289 282 281 284 286 288 296 301 305 307 314 314
234 221 220 222 223 217 213 214 211 208 209 227 244 245 250 251 253 251 252 253 250 247 241 242 248 253 263 266 268 276 283 288 287 281 280 282 285 290 296 299 307 311 313 322
181 238 227 224 222 227 221 224 224 226 229 237 244 248 253 250 248 254 257 249 243 244 248 242 246 257 262 271 276 282 288 288 282 278 277 282 284 291 295 301 306 308 311 318